Enid, OK

9:25 PM CDT on August 18, 2017 (GMT -0500)
Enid Woodring Municipal

Weather History for KWDG - December, 2012

Change the Weather History Date:

Monday, December 10, 2012

  Actual Average Record
Temperature  
Mean Temperature 27 °F -  
Max Temperature 37 °F 48 °F 75 °F (1996)
Min Temperature 17 °F 31 °F 5 °F (2013)
Degree Days  
Heating Degree Days 38    
Moisture  
Dew Point 7 °F    
Average Humidity 49    
Maximum Humidity 63    
Minimum Humidity 24    
Precipitation  
Precipitation 0.00 in - - ()
Sea Level Pressure  
Sea Level Pressure 30.11 in    
Wind  
Wind Speed 13 mph (WNW)    
Max Wind Speed 23 mph    
Max Gust Speed 31 mph    
Visibility 10 miles    
Events      
Averages and records for this station are not official NWS values.
T = Trace of Precipitation, MM = Missing Value Source: NWS Daily Summary

Daily Weather History Graph

Daily Weather History Graph

Search for Another Location

Airport or City:

Trip Planner

Search our weather history database for the weather conditions in past years. The results will help you decide how hot, cold, wet, or windy it might be!

Date:

Astronomy

Dec. 10, 2012 Rise Set
Actual Time 7:32 AM CST 5:16 PM CST
Civil Twilight 7:03 AM CST 5:44 PM CST
Nautical Twilight 6:31 AM CST 6:16 PM CST
Astronomical Twilight 6:00 AM CST 6:48 PM CST
Moon 4:20 AM CST (12/10) 3:03 PM CST (12/10)
Length of Visible Light 10h 41m
Length of Day
9h 43m
Waning Crescent, 10% of the Moon is Illuminated
Dec 10
Waning Crescent
Dec 13
New
Dec 19
First Quarter
Dec 28
Full
Jan 4
Last Quarter

Hourly Weather History & Observations

Time (CST) Temp. Windchill Dew Point Humidity Pressure Visibility Wind Dir Wind Speed Gust Speed Precip Events Conditions
12:15 AM 28.4 °F 16.2 °F 10.4 °F 47% 30.16 in 10.0 mi NNW 17.3 mph - N/A   Clear
12:35 AM 28.4 °F 14.4 °F 12.2 °F 51% 30.17 in 10.0 mi NNW 23.0 mph 31.1 mph N/A   Clear
12:55 AM 26.6 °F 13.1 °F 12.2 °F 55% 30.17 in 10.0 mi NNW 19.6 mph 29.9 mph N/A   Clear
1:15 AM 26.6 °F 13.4 °F 12.2 °F 55% 30.15 in 10.0 mi NNW 18.4 mph 29.9 mph N/A   Clear
1:55 AM 26.6 °F 14.7 °F 12.2 °F 55% 30.16 in 10.0 mi NNW 15.0 mph 19.6 mph N/A   Clear
2:15 AM 26.6 °F 14.3 °F 10.4 °F 51% 30.17 in 10.0 mi NNW 16.1 mph 21.9 mph N/A   Clear
2:35 AM 26.6 °F 14.7 °F 10.4 °F 51% 30.15 in 10.0 mi NNW 15.0 mph - N/A   Clear
2:55 AM 24.8 °F 14.0 °F 10.4 °F 54% 30.17 in 10.0 mi NNW 11.5 mph - N/A   Clear
3:15 AM 24.8 °F 12.9 °F 10.4 °F 54% 30.17 in 10.0 mi NNW 13.8 mph - N/A   Clear
3:35 AM 23.0 °F 10.6 °F 10.4 °F 59% 30.16 in 10.0 mi NNW 13.8 mph 18.4 mph N/A   Clear
3:55 AM 23.0 °F 11.1 °F 10.4 °F 59% 30.16 in 10.0 mi NNW 12.7 mph - N/A   Clear
4:15 AM 23.0 °F 10.6 °F 8.6 °F 54% 30.16 in 10.0 mi NNW 13.8 mph 21.9 mph N/A   Clear
4:35 AM 23.0 °F 11.1 °F 8.6 °F 54% 30.16 in 10.0 mi NNW 12.7 mph - N/A   Clear
4:55 AM 21.2 °F 7.8 °F 8.6 °F 58% 30.17 in 10.0 mi NNW 15.0 mph 19.6 mph N/A   Clear
6:20 AM 17.6 °F 1.7 °F 3.2 °F 53% 30.18 in 10.0 mi NNW 18.4 mph - N/A   Clear
6:50 AM 17.6 °F 3.7 °F 3.2 °F 53% 30.18 in 10.0 mi NNW 13.8 mph - N/A   Clear
8:50 AM 19.4 °F 5.0 °F 5.0 °F 54% 30.18 in 10.0 mi NNW 16.1 mph - N/A   Clear
9:50 AM 23.0 °F 11.7 °F 5.0 °F 46% 30.19 in 10.0 mi NNW 11.5 mph 18.4 mph N/A   Clear
10:50 AM 26.6 °F 15.2 °F 5.0 °F 40% 30.18 in 10.0 mi NW 13.8 mph - N/A   Clear
11:50 AM 30.2 °F 20.8 °F 3.2 °F 32% 30.15 in 10.0 mi NW 11.5 mph - N/A   Clear
12:53 PM 33.8 °F 26.4 °F 3.2 °F 28% 30.12 in 10.0 mi NW 9.2 mph - N/A   Clear
1:50 PM 35.6 °F 29.2 °F 3.2 °F 26% 30.09 in 10.0 mi NW 8.1 mph - N/A   Clear
2:50 PM 37.4 °F 29.8 °F 3.2 °F 24% 30.07 in 10.0 mi WNW 11.5 mph - N/A   Clear
3:50 PM 37.4 °F 34.9 °F 3.2 °F 24% 30.07 in 10.0 mi SW 3.5 mph - N/A   Clear
4:50 PM 35.6 °F 30.7 °F 5.0 °F 28% 30.07 in 10.0 mi SW 5.8 mph - N/A   Clear
5:50 PM 28.4 °F 19.7 °F 5.0 °F 37% 30.05 in 10.0 mi SSW 9.2 mph - N/A   Partly Cloudy
6:50 PM 23.0 °F 13.1 °F 3.2 °F 43% 30.04 in 10.0 mi South 9.2 mph - N/A   Partly Cloudy
7:50 PM 23.0 °F 17.0 °F 5.0 °F 46% 30.06 in 10.0 mi South 4.6 mph - N/A   Partly Cloudy
8:15 PM 23.0 °F 18.4 °F 5.0 °F 46% 30.05 in 10.0 mi South 3.5 mph - N/A   Clear
8:35 PM 21.2 °F 14.9 °F 5.0 °F 50% 30.04 in 10.0 mi South 4.6 mph - N/A   Clear
8:50 PM 21.2 °F 13.6 °F 5.0 °F 50% 30.06 in 10.0 mi South 5.8 mph - N/A   Partly Cloudy
8:55 PM 21.2 °F 14.9 °F 5.0 °F 50% 30.04 in 10.0 mi South 4.6 mph - N/A   Clear
9:15 PM 21.2 °F 16.4 °F 6.8 °F 54% 30.04 in 10.0 mi South 3.5 mph - N/A   Clear
9:35 PM 19.4 °F 12.8 °F 5.0 °F 54% 30.05 in 10.0 mi South 4.6 mph - N/A   Clear
9:55 PM 19.4 °F 14.3 °F 5.0 °F 54% 30.05 in 10.0 mi South 3.5 mph - N/A   Clear
10:15 PM 17.6 °F 12.3 °F 5.0 °F 58% 30.05 in 10.0 mi South 3.5 mph - N/A   Clear
10:35 PM 19.4 °F 14.3 °F 6.8 °F 58% 30.06 in 10.0 mi South 3.5 mph - N/A   Clear
10:55 PM 17.6 °F 12.3 °F 6.8 °F 63% 30.05 in 10.0 mi SSW 3.5 mph - N/A   Clear
11:15 PM 19.4 °F 14.3 °F 6.8 °F 58% 30.05 in 10.0 mi SSW 3.5 mph - N/A   Clear
11:55 PM 17.6 °F 10.7 °F 6.8 °F 63% 30.05 in 10.0 mi SSW 4.6 mph - N/A   Clear